Home   Weather   Columbus   Past weeks
Flag for USA

Past Weather in Columbus, Ohio, USA — Yesterday and Last 2 Weeks

Now
77 °F

Scattered clouds.


Feels Like: 79 °F
Forecast: 79 / 67 °F
Wind: 8 mph from South

Location: John Glenn Columbus International Airport

Current Time: May 26, 2019 at 1:25:01 pm

Latest Report: May 26, 2019 at 12:51 pm


Visibility: 10 mi

Pressure: 30.03 "Hg

Humidity: 64%

Dew Point: 64 °F

Location of ColumbusLocation

Past Weather in Columbus — Graph

°F

Columbus Temperature Yesterday

Maximum temperature yesterday: 88 °F (at 3:51 pm)
Minimum temperature yesterday: 65 °F (at 5:51 am)
Average temperature yesterday: 75 °F

High & Low Weather Summary for the Past Weeks

 TemperatureHumidityPressure
High88 °F (May 25, 3:51 pm)97% (May 13, 7:37 am)30.18 "Hg (May 13, 7:37 am)
Low42 °F (May 14, 5:51 am)32% (May 15, 5:51 pm)29.71 "Hg (May 13, 3:51 am)
Average64 °F71%29.94 "Hg
* Reported May 11 11:51 am — May 26 11:51 am, Columbus. Weather by CustomWeather, © 2019

Note: Actual official high and low records may vary slightly from our data, if they occured in-between our weather recording intervals... More about our weather records

Advertising

Columbus Weather History for the Previous 24 Hours

Scroll right to see more
 ConditionsComfort  
Time TempWeatherWind HumidityBarometerVisibility
11:51 am
Sun, May 26
74 °FPartly sunny.5 mph71%30.04 "Hg10 mi
10:51 am71 °FBroken clouds.5 mph76%30.05 "Hg10 mi
9:51 am69 °FPartly sunny.No wind81%30.06 "Hg10 mi
8:51 am67 °FScattered clouds.3 mph87%30.06 "Hg10 mi
8:33 am67 °FScattered clouds.6 mph87%30.08 "Hg10 mi
8:16 am66 °FThundershowers. Fog.15 mph90%30.07 "Hg6 mi
7:57 am68 °FThunderstorms. Fog.22 mph84%30.09 "Hg5 mi
7:38 am67 °FThunderstorms. Fog.5 mph90%30.06 "Hg6 mi
6:51 am67 °FBroken clouds.No wind90%30.03 "Hg8 mi
5:51 am66 °FPassing clouds.3 mph90%30.00 "Hg9 mi
4:51 am65 °FPassing clouds.No wind94%29.99 "Hg9 mi
3:51 am67 °FPassing clouds.3 mph90%29.99 "Hg9 mi
2:51 am66 °FPassing clouds.No wind93%30.01 "Hg9 mi
1:51 am69 °FPassing clouds.No wind87%30.01 "Hg10 mi
12:51 am70 °FClear.No wind84%30.02 "Hg10 mi
11:51 pm
Sat, May 25
70 °FClear.5 mph84%30.02 "Hg10 mi
10:51 pm71 °FPassing clouds.5 mph78%30.03 "Hg10 mi
9:51 pm73 °FPassing clouds.5 mph74%30.02 "Hg10 mi
8:51 pm74 °FOvercast.6 mph71%30.01 "Hg10 mi
7:51 pm76 °FMore clouds than sun.13 mph67%30.01 "Hg10 mi
6:51 pm74 °FLight rain. Mostly cloudy.12 mph71%30.01 "Hg10 mi
5:51 pm76 °FLight rain. Mostly cloudy.14 mph64%30.01 "Hg10 mi
5:38 pm78 °FMostly cloudy.21 mph58%30.01 "Hg10 mi
4:51 pm87 °FBroken clouds.20 mph42%29.96 "Hg10 mi
3:51 pm88 °FMore clouds than sun.18 mph40%29.95 "Hg10 mi
2:51 pm87 °FPartly sunny.18 mph45%29.95 "Hg10 mi
1:51 pm86 °FPartly sunny.13 mph55%29.97 "Hg10 mi
Weather by CustomWeather, © 2019

See weather overview